Time,TemperatureF,DewpointF,PressureIn,WindDirection,WindDirectionDegrees,WindSpeedMPH,WindSpeedGustMPH,Humidity,HourlyPrecipIn,Conditions,Clouds,dailyrainin,SolarRadiationWatts/m^2,SoftwareType,DateUTC
2013-03-22 00:00:00,46.4,44.2,30.07,SW,236,0.0,0.0,92,0.00,,,0.00,0,Wunderground v.1.15,2013-03-22 07:00:00,
2013-03-22 00:05:00,46.1,43.6,30.07,SW,236,0.0,0.0,91,0.00,,,0.00,0,Wunderground v.1.15,2013-03-22 07:05:00,
2013-03-22 00:15:00,45.7,43.8,30.07,NNW,347,1.0,1.0,93,0.00,,,0.00,0,Wunderground v.1.15,2013-03-22 07:15:00,
2013-03-22 00:20:00,45.6,44.3,30.07,NNE,25,1.0,1.0,95,0.00,,,0.00,0,Wunderground v.1.15,2013-03-22 07:20:00,
2013-03-22 00:25:00,45.4,44.1,30.07,NNE,25,0.0,1.0,95,0.00,,,0.00,0,Wunderground v.1.15,2013-03-22 07:25:00,
2013-03-22 00:30:00,45.2,43.6,30.07,NNE,17,2.0,2.0,94,0.00,,,0.00,0,Wunderground v.1.15,2013-03-22 07:30:00,
2013-03-22 00:35:00,45.4,43.8,30.07,ESE,121,0.0,2.0,94,0.00,,,0.00,0,Wunderground v.1.15,2013-03-22 07:35:00,
2013-03-22 00:40:00,45.5,43.9,30.06,ESE,121,0.0,0.0,94,0.00,,,0.00,0,Wunderground v.1.15,2013-03-22 07:40:00,
2013-03-22 00:50:00,45.3,43.4,30.06,South,191,2.0,2.0,93,0.00,,,0.00,0,Wunderground v.1.15,2013-03-22 07:50:00,
2013-03-22 01:00:00,44.7,43.4,30.06,South,180,1.0,1.0,95,0.00,,,0.00,0,Wunderground v.1.15,2013-03-22 08:00:00,
2013-03-22 01:05:00,44.5,43.4,30.05,South,179,2.0,2.0,96,0.00,,,0.00,0,Wunderground v.1.15,2013-03-22 08:05:00,
2013-03-22 01:15:00,44.5,43.2,30.06,SSW,197,0.0,2.0,95,0.00,,,0.00,0,Wunderground v.1.15,2013-03-22 08:15:00,
2013-03-22 01:25:00,44.4,43.1,30.05,SSW,197,1.0,1.0,95,0.00,,,0.00,0,Wunderground v.1.15,2013-03-22 08:25:00,
2013-03-22 01:30:00,44.4,42.8,30.06,SSW,197,0.0,0.0,94,0.00,,,0.00,0,Wunderground v.1.15,2013-03-22 08:30:00,
2013-03-22 01:35:00,44.3,43.0,30.06,SSW,197,1.0,1.0,95,0.00,,,0.00,0,Wunderground v.1.15,2013-03-22 08:35:00,
2013-03-22 01:45:00,44.3,43.0,30.06,WNW,292,0.0,1.0,95,0.00,,,0.00,0,Wunderground v.1.15,2013-03-22 08:45:00,
2013-03-22 01:50:00,44.3,43.0,30.06,WNW,292,0.0,0.0,95,0.00,,,0.00,0,Wunderground v.1.15,2013-03-22 08:50:00,
2013-03-22 02:00:00,44.2,42.9,30.06,WNW,292,0.0,0.0,95,0.00,,,0.00,0,Wunderground v.1.15,2013-03-22 09:00:00,
2013-03-22 02:05:00,44.1,42.8,30.07,WNW,292,0.0,0.0,95,0.00,,,0.00,0,Wunderground v.1.15,2013-03-22 09:05:00,
2013-03-22 02:10:00,43.9,42.8,30.07,WNW,292,0.0,0.0,96,0.00,,,0.00,0,Wunderground v.1.15,2013-03-22 09:10:00,
2013-03-22 02:15:00,43.7,42.6,30.06,WNW,292,1.0,1.0,96,0.00,,,0.00,0,Wunderground v.1.15,2013-03-22 09:15:00,
2013-03-22 02:20:00,43.5,42.7,30.06,WNW,292,0.0,0.0,97,0.00,,,0.00,0,Wunderground v.1.15,2013-03-22 09:20:00,
2013-03-22 02:25:00,43.3,42.5,30.07,ENE,63,3.0,3.0,97,0.00,,,0.00,0,Wunderground v.1.15,2013-03-22 09:25:00,
2013-03-22 02:30:00,43.1,41.8,30.06,NNE,18,0.0,0.0,95,0.00,,,0.00,0,Wunderground v.1.15,2013-03-22 09:30:00,
2013-03-22 02:35:00,42.7,41.9,30.06,NNE,12,3.0,3.0,97,0.00,,,0.00,0,Wunderground v.1.15,2013-03-22 09:35:00,
2013-03-22 02:40:00,42.5,41.7,30.06,NNE,26,0.0,0.0,97,0.00,,,0.00,0,Wunderground v.1.15,2013-03-22 09:40:00,
2013-03-22 02:50:00,42.4,41.6,30.06,NNE,30,0.0,0.0,97,0.00,,,0.00,0,Wunderground v.1.15,2013-03-22 09:50:00,
2013-03-22 02:55:00,42.3,41.5,30.06,NNE,30,0.0,0.0,97,0.00,,,0.00,0,Wunderground v.1.15,2013-03-22 09:55:00,
2013-03-22 03:00:00,42.2,41.4,30.06,NNE,30,0.0,0.0,97,0.00,,,0.00,0,Wunderground v.1.15,2013-03-22 10:00:00,
2013-03-22 03:05:00,42.1,41.6,30.06,NNE,30,0.0,0.0,98,0.00,,,0.00,0,Wunderground v.1.15,2013-03-22 10:05:00,
2013-03-22 03:10:00,42.0,41.2,30.06,NNE,30,2.0,2.0,97,0.00,,,0.00,0,Wunderground v.1.15,2013-03-22 10:10:00,
2013-03-22 03:20:00,41.8,41.3,30.06,East,88,1.0,1.0,98,0.00,,,0.00,0,Wunderground v.1.15,2013-03-22 10:20:00,
2013-03-22 03:25:00,41.6,41.3,30.06,SE,135,0.0,1.0,99,0.00,,,0.00,0,Wunderground v.1.15,2013-03-22 10:25:00,
2013-03-22 03:30:00,41.5,41.2,30.05,SE,136,2.0,2.0,99,0.00,,,0.00,0,Wunderground v.1.15,2013-03-22 10:30:00,
2013-03-22 03:35:00,41.3,40.8,30.06,East,99,1.0,2.0,98,0.00,,,0.00,0,Wunderground v.1.15,2013-03-22 10:35:00,
2013-03-22 03:40:00,41.3,41.0,30.06,East,98,0.0,0.0,99,0.00,,,0.00,0,Wunderground v.1.15,2013-03-22 10:40:00,
2013-03-22 03:45:00,41.3,40.8,30.06,NE,34,1.0,1.0,98,0.00,,,0.00,0,Wunderground v.1.15,2013-03-22 10:45:00,
2013-03-22 03:50:00,41.3,40.8,30.06,ESE,103,3.0,3.0,98,0.00,,,0.00,0,Wunderground v.1.15,2013-03-22 10:50:00,
2013-03-22 03:55:00,41.1,40.6,30.06,South,178,0.0,3.0,98,0.00,,,0.00,0,Wunderground v.1.15,2013-03-22 10:55:00,
2013-03-22 04:00:00,40.8,40.3,30.06,SE,145,2.0,2.0,98,0.00,,,0.00,0,Wunderground v.1.15,2013-03-22 11:00:00,
2013-03-22 04:10:00,40.7,40.2,30.05,NNE,19,0.0,0.0,98,0.00,,,0.00,0,Wunderground v.1.15,2013-03-22 11:10:00,
2013-03-22 04:20:00,42.3,40.7,30.05,South,181,2.0,2.0,94,0.00,,,0.00,0,Wunderground v.1.15,2013-03-22 11:20:00,
2013-03-22 04:25:00,43.1,40.4,30.05,South,175,1.0,2.0,90,0.00,,,0.00,0,Wunderground v.1.15,2013-03-22 11:25:00,
2013-03-22 04:30:00,43.7,39.8,30.06,South,178,3.0,3.0,86,0.00,,,0.00,0,Wunderground v.1.15,2013-03-22 11:30:00,
2013-03-22 04:35:00,44.1,39.3,30.06,South,178,1.0,3.0,83,0.00,,,0.00,0,Wunderground v.1.15,2013-03-22 11:35:00,
2013-03-22 04:40:00,44.6,39.1,30.06,South,181,0.0,0.0,81,0.00,,,0.00,0,Wunderground v.1.15,2013-03-22 11:40:00,
2013-03-22 04:45:00,44.9,38.8,30.05,South,175,4.0,4.0,79,0.00,,,0.00,0,Wunderground v.1.15,2013-03-22 11:45:00,
2013-03-22 04:50:00,44.8,38.4,30.06,South,173,2.0,2.0,78,0.00,,,0.00,0,Wunderground v.1.15,2013-03-22 11:50:00,
2013-03-22 05:00:00,44.9,38.1,30.05,South,186,0.0,0.0,77,0.00,,,0.00,0,Wunderground v.1.15,2013-03-22 12:00:00,
2013-03-22 05:05:00,45.4,37.6,30.06,North,5,3.0,3.0,74,0.00,,,0.00,0,Wunderground v.1.15,2013-03-22 12:05:00,
2013-03-22 05:10:00,45.7,37.9,30.06,North,354,1.0,1.0,74,0.00,,,0.00,0,Wunderground v.1.15,2013-03-22 12:10:00,
2013-03-22 05:15:00,45.0,37.9,30.06,NNW,339,2.0,2.0,76,0.00,,,0.00,0,Wunderground v.1.15,2013-03-22 12:15:00,
2013-03-22 05:20:00,44.2,38.1,30.06,NNW,340,0.0,0.0,79,0.00,,,0.00,0,Wunderground v.1.15,2013-03-22 12:20:00,
2013-03-22 05:25:00,43.6,38.2,30.06,NNW,341,0.0,0.0,81,0.00,,,0.00,0,Wunderground v.1.15,2013-03-22 12:25:00,
2013-03-22 05:30:00,43.2,38.4,30.06,SSW,206,0.0,0.0,83,0.00,,,0.00,0,Wunderground v.1.15,2013-03-22 12:30:00,
2013-03-22 05:40:00,42.8,38.3,30.06,ENE,60,2.0,2.0,84,0.00,,,0.00,0,Wunderground v.1.15,2013-03-22 12:40:00,
2013-03-22 05:45:00,42.6,38.4,30.07,NNE,30,2.0,2.0,85,0.00,,,0.00,0,Wunderground v.1.15,2013-03-22 12:45:00,
2013-03-22 05:50:00,42.4,38.2,30.07,NNW,339,2.0,2.0,85,0.00,,,0.00,0,Wunderground v.1.15,2013-03-22 12:50:00,
2013-03-22 06:00:00,42.3,37.8,30.07,South,175,0.0,0.0,84,0.00,,,0.00,0,Wunderground v.1.15,2013-03-22 13:00:00,
2013-03-22 06:05:00,42.2,37.4,30.07,South,175,0.0,0.0,83,0.00,,,0.00,0,Wunderground v.1.15,2013-03-22 13:05:00,
2013-03-22 06:10:00,42.0,37.2,30.07,South,175,1.0,1.0,83,0.00,,,0.00,0,Wunderground v.1.15,2013-03-22 13:10:00,
2013-03-22 06:15:00,41.9,36.5,30.07,South,175,1.0,1.0,81,0.00,,,0.00,0,Wunderground v.1.15,2013-03-22 13:15:00,
2013-03-22 06:20:00,42.0,35.3,30.07,South,175,1.0,1.0,77,0.00,,,0.00,0,Wunderground v.1.15,2013-03-22 13:20:00,
2013-03-22 06:25:00,42.6,34.9,30.07,South,175,0.0,1.0,74,0.00,,,0.00,0,Wunderground v.1.15,2013-03-22 13:25:00,
2013-03-22 06:30:00,43.3,34.5,30.07,South,175,0.0,0.0,71,0.00,,,0.00,0,Wunderground v.1.15,2013-03-22 13:30:00,
2013-03-22 06:35:00,43.9,34.0,30.07,South,175,1.0,1.0,68,0.00,,,0.00,0,Wunderground v.1.15,2013-03-22 13:35:00,
2013-03-22 06:45:00,45.7,33.0,30.07,South,189,0.0,2.0,61,0.00,,,0.00,0,Wunderground v.1.15,2013-03-22 13:45:00,
2013-03-22 06:55:00,46.3,32.7,30.08,South,176,0.0,0.0,59,0.00,,,0.00,0,Wunderground v.1.15,2013-03-22 13:55:00,
2013-03-22 07:00:00,46.2,32.7,30.08,SW,229,0.0,0.0,59,0.00,,,0.00,0,Wunderground v.1.15,2013-03-22 14:00:00,
2013-03-22 07:05:00,46.1,31.7,30.08,South,177,1.0,1.0,57,0.00,,,0.00,0,Wunderground v.1.15,2013-03-22 14:05:00,
2013-03-22 07:10:00,46.1,32.1,30.08,NNE,31,2.0,2.0,58,0.00,,,0.00,0,Wunderground v.1.15,2013-03-22 14:10:00,
2013-03-22 07:20:00,46.9,30.2,30.08,NE,35,1.0,1.0,52,0.00,,,0.00,0,Wunderground v.1.15,2013-03-22 14:20:00,
2013-03-22 07:25:00,47.3,30.1,30.09,ENE,65,2.0,2.0,51,0.00,,,0.00,0,Wunderground v.1.15,2013-03-22 14:25:00,
2013-03-22 07:30:00,47.8,29.5,30.09,NNE,27,0.0,0.0,49,0.00,,,0.00,0,Wunderground v.1.15,2013-03-22 14:30:00,
2013-03-22 07:35:00,48.2,29.4,30.09,NE,35,3.0,3.0,48,0.00,,,0.00,0,Wunderground v.1.15,2013-03-22 14:35:00,
2013-03-22 07:40:00,48.4,29.6,30.09,NE,50,1.0,1.0,48,0.00,,,0.00,0,Wunderground v.1.15,2013-03-22 14:40:00,
2013-03-22 07:50:00,48.8,28.9,30.09,NE,36,2.0,2.0,46,0.00,,,0.00,0,Wunderground v.1.15,2013-03-22 14:50:00,
2013-03-22 07:55:00,49.1,28.7,30.09,North,7,2.0,2.0,45,0.00,,,0.00,0,Wunderground v.1.15,2013-03-22 14:55:00,
2013-03-22 08:00:00,49.6,28.0,30.09,NNE,27,1.0,1.0,43,0.00,,,0.00,0,Wunderground v.1.15,2013-03-22 15:00:00,
2013-03-22 08:05:00,50.5,26.4,30.09,NE,36,2.0,2.0,39,0.00,,,0.00,0,Wunderground v.1.15,2013-03-22 15:05:00,
2013-03-22 08:10:00,51.2,27.7,30.09,NNE,28,3.0,3.0,40,0.00,,,0.00,0,Wunderground v.1.15,2013-03-22 15:10:00,
2013-03-22 08:15:00,51.3,29.0,30.09,NNE,13,1.0,3.0,42,0.00,,,0.00,0,Wunderground v.1.15,2013-03-22 15:15:00,
2013-03-22 08:25:00,51.4,28.5,30.10,NNE,32,0.0,2.0,41,0.00,,,0.00,0,Wunderground v.1.15,2013-03-22 15:25:00,
2013-03-22 08:30:00,51.7,28.7,30.10,NNE,31,3.0,3.0,41,0.00,,,0.00,0,Wunderground v.1.15,2013-03-22 15:30:00,
2013-03-22 08:35:00,52.0,28.4,30.10,NE,34,1.0,3.0,40,0.00,,,0.00,0,Wunderground v.1.15,2013-03-22 15:35:00,
2013-03-22 08:40:00,52.3,28.7,30.10,NE,38,2.0,2.0,40,0.00,,,0.00,0,Wunderground v.1.15,2013-03-22 15:40:00,
2013-03-22 08:45:00,52.5,29.5,30.10,NE,43,3.0,3.0,41,0.00,,,0.00,0,Wunderground v.1.15,2013-03-22 15:45:00,
2013-03-22 08:50:00,52.8,28.5,30.10,NE,54,0.0,0.0,39,0.00,,,0.00,0,Wunderground v.1.15,2013-03-22 15:50:00,
2013-03-22 08:55:00,53.4,27.8,30.10,NNE,33,2.0,2.0,37,0.00,,,0.00,0,Wunderground v.1.15,2013-03-22 15:55:00,
2013-03-22 09:00:00,53.7,28.7,30.10,NE,35,1.0,1.0,38,0.00,,,0.00,0,Wunderground v.1.15,2013-03-22 16:00:00,
2013-03-22 09:05:00,54.0,28.3,30.10,NE,42,2.0,2.0,37,0.00,,,0.00,0,Wunderground v.1.15,2013-03-22 16:05:00,
2013-03-22 09:15:00,54.2,28.5,30.11,North,11,4.0,4.0,37,0.00,,,0.00,0,Wunderground v.1.15,2013-03-22 16:15:00,
2013-03-22 09:20:00,54.5,28.1,30.11,NNE,20,3.0,3.0,36,0.00,,,0.00,0,Wunderground v.1.15,2013-03-22 16:20:00,
2013-03-22 09:25:00,54.9,27.7,30.11,NNE,24,3.0,3.0,35,0.00,,,0.00,0,Wunderground v.1.15,2013-03-22 16:25:00,
2013-03-22 09:30:00,55.3,27.4,30.11,NE,38,3.0,3.0,34,0.00,,,0.00,0,Wunderground v.1.15,2013-03-22 16:30:00,
2013-03-22 09:35:00,55.8,27.1,30.11,North,8,3.0,3.0,33,0.00,,,0.00,0,Wunderground v.1.15,2013-03-22 16:35:00,
2013-03-22 09:40:00,56.2,27.4,30.12,North,359,3.0,3.0,33,0.00,,,0.00,0,Wunderground v.1.15,2013-03-22 16:40:00,
2013-03-22 09:45:00,56.4,26.9,30.12,NNW,328,3.0,3.0,32,0.00,,,0.00,0,Wunderground v.1.15,2013-03-22 16:45:00,
2013-03-22 09:50:00,56.6,27.0,30.12,North,1,4.0,4.0,32,0.00,,,0.00,0,Wunderground v.1.15,2013-03-22 16:50:00,
2013-03-22 09:55:00,56.9,28.1,30.12,NW,323,0.0,4.0,33,0.00,,,0.00,0,Wunderground v.1.15,2013-03-22 16:55:00,
2013-03-22 10:00:00,57.2,27.6,30.12,NW,311,0.0,0.0,32,0.00,,,0.00,0,Wunderground v.1.15,2013-03-22 17:00:00,
2013-03-22 10:05:00,57.6,27.9,30.12,WNW,300,3.0,3.0,32,0.00,,,0.00,0,Wunderground v.1.15,2013-03-22 17:05:00,
2013-03-22 10:15:00,58.1,28.4,30.12,ESE,109,4.0,4.0,32,0.00,,,0.00,0,Wunderground v.1.15,2013-03-22 17:15:00,
2013-03-22 10:20:00,58.9,28.3,30.12,NNW,347,3.0,3.0,31,0.00,,,0.00,0,Wunderground v.1.15,2013-03-22 17:20:00,
2013-03-22 10:25:00,58.9,26.7,30.13,NNE,15,9.0,9.0,29,0.00,,,0.00,0,Wunderground v.1.15,2013-03-22 17:25:00,
2013-03-22 10:30:00,58.4,25.4,30.13,NNE,27,8.0,8.0,28,0.00,,,0.00,0,Wunderground v.1.15,2013-03-22 17:30:00,
2013-03-22 10:40:00,58.1,26.0,30.13,NE,41,3.0,3.0,29,0.00,,,0.00,0,Wunderground v.1.15,2013-03-22 17:40:00,
2013-03-22 10:45:00,58.6,27.2,30.13,NW,308,4.0,4.0,30,0.00,,,0.00,0,Wunderground v.1.15,2013-03-22 17:45:00,
2013-03-22 10:50:00,58.8,27.4,30.13,NE,44,1.0,1.0,30,0.00,,,0.00,0,Wunderground v.1.15,2013-03-22 17:50:00,
2013-03-22 11:00:00,59.3,26.2,30.13,NNE,19,11.0,11.0,28,0.00,,,0.00,0,Wunderground v.1.15,2013-03-22 18:00:00,
2013-03-22 11:05:00,59.4,27.1,30.12,North,8,8.0,11.0,29,0.00,,,0.00,0,Wunderground v.1.15,2013-03-22 18:05:00,
2013-03-22 11:15:00,60.0,27.6,30.13,NE,39,4.0,7.0,29,0.00,,,0.00,0,Wunderground v.1.15,2013-03-22 18:15:00,
2013-03-22 11:20:00,60.0,28.4,30.13,North,2,3.0,3.0,30,0.00,,,0.00,0,Wunderground v.1.15,2013-03-22 18:20:00,
2013-03-22 11:25:00,60.4,28.0,30.13,North,1,6.0,6.0,29,0.00,,,0.00,0,Wunderground v.1.15,2013-03-22 18:25:00,
2013-03-22 11:30:00,60.5,28.9,30.13,NNW,346,5.0,5.0,30,0.00,,,0.00,0,Wunderground v.1.15,2013-03-22 18:30:00,
2013-03-22 11:35:00,60.6,29.0,30.13,NW,320,1.0,5.0,30,0.00,,,0.00,0,Wunderground v.1.15,2013-03-22 18:35:00,
2013-03-22 11:40:00,61.1,28.6,30.13,North,5,4.0,4.0,29,0.00,,,0.00,0,Wunderground v.1.15,2013-03-22 18:40:00,
2013-03-22 11:45:00,61.2,28.7,30.13,NE,54,6.0,6.0,29,0.00,,,0.00,0,Wunderground v.1.15,2013-03-22 18:45:00,
2013-03-22 11:55:00,61.4,27.1,30.12,NE,45,5.0,7.0,27,0.00,,,0.00,0,Wunderground v.1.15,2013-03-22 18:55:00,
2013-03-22 12:05:00,61.1,26.8,30.12,NNE,27,8.0,8.0,27,0.00,,,0.00,0,Wunderground v.1.15,2013-03-22 19:05:00,
2013-03-22 12:10:00,61.0,26.7,30.12,North,3,4.0,4.0,27,0.00,,,0.00,0,Wunderground v.1.15,2013-03-22 19:10:00,
2013-03-22 12:15:00,61.6,28.1,30.12,NNE,29,4.0,4.0,28,0.00,,,0.00,0,Wunderground v.1.15,2013-03-22 19:15:00,
2013-03-22 12:20:00,61.4,28.8,30.12,NNE,25,3.0,3.0,29,0.00,,,0.00,0,Wunderground v.1.15,2013-03-22 19:20:00,
2013-03-22 12:25:00,61.5,29.7,30.12,North,7,6.0,6.0,30,0.00,,,0.00,0,Wunderground v.1.15,2013-03-22 19:25:00,
2013-03-22 12:30:00,61.7,29.9,30.11,NNE,28,5.0,5.0,30,0.00,,,0.00,0,Wunderground v.1.15,2013-03-22 19:30:00,
2013-03-22 12:40:00,62.1,29.4,30.11,NE,34,6.0,6.0,29,0.00,,,0.00,0,Wunderground v.1.15,2013-03-22 19:40:00,
2013-03-22 12:50:00,62.5,30.6,30.11,NNE,20,8.0,8.0,30,0.00,,,0.00,0,Wunderground v.1.15,2013-03-22 19:50:00,
2013-03-22 13:00:00,62.6,29.0,30.10,North,6,6.0,6.0,28,0.00,,,0.00,0,Wunderground v.1.15,2013-03-22 20:00:00,
2013-03-22 13:10:00,62.2,31.2,30.10,NE,37,7.0,7.0,31,0.00,,,0.00,0,Wunderground v.1.15,2013-03-22 20:10:00,
2013-03-22 13:15:00,62.6,30.7,30.10,North,4,10.0,10.0,30,0.00,,,0.00,0,Wunderground v.1.15,2013-03-22 20:15:00,
2013-03-22 13:20:00,62.4,29.7,30.10,North,1,5.0,5.0,29,0.00,,,0.00,0,Wunderground v.1.15,2013-03-22 20:20:00,
2013-03-22 13:25:00,62.4,30.5,30.10,NNE,23,7.0,7.0,30,0.00,,,0.00,0,Wunderground v.1.15,2013-03-22 20:25:00,
2013-03-22 13:30:00,62.8,30.0,30.10,NNE,29,6.0,6.0,29,0.00,,,0.00,0,Wunderground v.1.15,2013-03-22 20:30:00,
2013-03-22 13:40:00,62.9,30.1,30.10,NNE,20,13.0,13.0,29,0.00,,,0.00,0,Wunderground v.1.15,2013-03-22 20:40:00,
2013-03-22 13:45:00,63.4,28.8,30.10,NNE,21,13.0,13.0,27,0.00,,,0.00,0,Wunderground v.1.15,2013-03-22 20:45:00,
2013-03-22 13:55:00,64.0,29.3,30.10,NNE,12,8.0,8.0,27,0.00,,,0.00,0,Wunderground v.1.15,2013-03-22 20:55:00,
2013-03-22 14:00:00,64.1,29.4,30.09,North,4,11.0,11.0,27,0.00,,,0.00,0,Wunderground v.1.15,2013-03-22 21:00:00,
2013-03-22 14:10:00,64.3,28.7,30.09,North,3,13.0,13.0,26,0.00,,,0.00,0,Wunderground v.1.15,2013-03-22 21:10:00,
2013-03-22 14:15:00,64.4,28.7,30.09,NNE,12,21.0,21.0,26,0.00,,,0.00,0,Wunderground v.1.15,2013-03-22 21:15:00,
2013-03-22 14:20:00,64.3,29.6,30.09,North,4,8.0,8.0,27,0.00,,,0.00,0,Wunderground v.1.15,2013-03-22 21:20:00,
2013-03-22 14:25:00,64.4,29.7,30.08,North,7,8.0,8.0,27,0.00,,,0.00,0,Wunderground v.1.15,2013-03-22 21:25:00,
2013-03-22 14:30:00,64.6,29.8,30.08,NNE,12,13.0,13.0,27,0.00,,,0.00,0,Wunderground v.1.15,2013-03-22 21:30:00,
2013-03-22 14:40:00,65.0,30.2,30.08,NNE,13,11.0,11.0,27,0.00,,,0.00,0,Wunderground v.1.15,2013-03-22 21:40:00,
2013-03-22 14:45:00,65.3,30.4,30.08,NNW,334,10.0,11.0,27,0.00,,,0.00,0,Wunderground v.1.15,2013-03-22 21:45:00,
2013-03-22 14:55:00,65.1,30.3,30.07,North,4,8.0,8.0,27,0.00,,,0.00,0,Wunderground v.1.15,2013-03-22 21:55:00,
2013-03-22 15:00:00,65.6,30.7,30.07,NNE,18,14.0,14.0,27,0.00,,,0.00,0,Wunderground v.1.15,2013-03-22 22:00:00,
2013-03-22 15:05:00,65.4,31.4,30.06,North,7,9.0,14.0,28,0.00,,,0.00,0,Wunderground v.1.15,2013-03-22 22:05:00,
2013-03-22 15:10:00,65.5,30.6,30.06,NNE,26,3.0,3.0,27,0.00,,,0.00,0,Wunderground v.1.15,2013-03-22 22:10:00,
2013-03-22 15:20:00,66.3,31.3,30.06,North,350,11.0,11.0,27,0.00,,,0.00,0,Wunderground v.1.15,2013-03-22 22:20:00,
2013-03-22 15:25:00,65.8,30.9,30.06,North,356,13.0,13.0,27,0.00,,,0.00,0,Wunderground v.1.15,2013-03-22 22:25:00,
2013-03-22 15:35:00,65.8,30.9,30.05,NNW,340,11.0,11.0,27,0.00,,,0.00,0,Wunderground v.1.15,2013-03-22 22:35:00,
2013-03-22 15:40:00,65.9,30.9,30.05,NNW,343,5.0,5.0,27,0.00,,,0.00,0,Wunderground v.1.15,2013-03-22 22:40:00,
2013-03-22 15:45:00,66.2,31.2,30.05,NNE,17,7.0,7.0,27,0.00,,,0.00,0,Wunderground v.1.15,2013-03-22 22:45:00,
2013-03-22 15:50:00,66.2,31.2,30.05,NNE,23,7.0,7.0,27,0.00,,,0.00,0,Wunderground v.1.15,2013-03-22 22:50:00,
2013-03-22 16:00:00,66.8,31.7,30.05,NNW,346,9.0,9.0,27,0.00,,,0.00,0,Wunderground v.1.15,2013-03-22 23:00:00,
2013-03-22 16:10:00,66.8,31.7,30.05,North,1,4.0,4.0,27,0.00,,,0.00,0,Wunderground v.1.15,2013-03-22 23:10:00,
2013-03-22 16:20:00,66.0,32.8,30.05,North,3,6.0,6.0,29,0.00,,,0.00,0,Wunderground v.1.15,2013-03-22 23:20:00,
2013-03-22 16:25:00,65.7,33.4,30.05,NE,45,3.0,6.0,30,0.00,,,0.00,0,Wunderground v.1.15,2013-03-22 23:25:00,
2013-03-22 16:30:00,65.4,33.1,30.05,NNE,24,6.0,6.0,30,0.00,,,0.00,0,Wunderground v.1.15,2013-03-22 23:30:00,
2013-03-22 16:35:00,64.9,32.7,30.05,NNE,24,4.0,6.0,30,0.00,,,0.00,0,Wunderground v.1.15,2013-03-22 23:35:00,
2013-03-22 16:40:00,65.1,32.9,30.04,NNE,32,6.0,6.0,30,0.00,,,0.00,0,Wunderground v.1.15,2013-03-22 23:40:00,
2013-03-22 16:50:00,64.8,33.4,30.05,North,10,10.0,10.0,31,0.00,,,0.00,0,Wunderground v.1.15,2013-03-22 23:50:00,
2013-03-22 16:55:00,64.9,33.5,30.05,NNE,12,11.0,11.0,31,0.00,,,0.00,0,Wunderground v.1.15,2013-03-22 23:55:00,
2013-03-22 17:00:00,64.9,33.5,30.05,NNE,22,5.0,5.0,31,0.00,,,0.00,0,Wunderground v.1.15,2013-03-23 00:00:00,
2013-03-22 17:05:00,64.9,33.5,30.05,NNE,33,5.0,5.0,31,0.00,,,0.00,0,Wunderground v.1.15,2013-03-23 00:05:00,
2013-03-22 17:10:00,65.0,33.6,30.05,NNE,30,5.0,5.0,31,0.00,,,0.00,0,Wunderground v.1.15,2013-03-23 00:10:00,
2013-03-22 17:15:00,64.9,34.3,30.04,NNE,20,4.0,5.0,32,0.00,,,0.00,0,Wunderground v.1.15,2013-03-23 00:15:00,
2013-03-22 17:20:00,64.8,34.2,30.04,NNE,13,7.0,7.0,32,0.00,,,0.00,0,Wunderground v.1.15,2013-03-23 00:20:00,
2013-03-22 17:30:00,64.9,35.1,30.04,NE,54,6.0,6.0,33,0.00,,,0.00,0,Wunderground v.1.15,2013-03-23 00:30:00,
2013-03-22 17:35:00,64.9,35.1,30.04,NNE,20,4.0,6.0,33,0.00,,,0.00,0,Wunderground v.1.15,2013-03-23 00:35:00,
2013-03-22 17:40:00,64.9,35.1,30.04,North,7,4.0,4.0,33,0.00,,,0.00,0,Wunderground v.1.15,2013-03-23 00:40:00,
2013-03-22 17:45:00,64.7,34.1,30.04,NNE,30,6.0,6.0,32,0.00,,,0.00,0,Wunderground v.1.15,2013-03-23 00:45:00,
2013-03-22 17:50:00,64.6,34.1,30.04,North,9,5.0,5.0,32,0.00,,,0.00,0,Wunderground v.1.15,2013-03-23 00:50:00,
2013-03-22 17:55:00,64.6,34.1,30.04,North,8,1.0,5.0,32,0.00,,,0.00,0,Wunderground v.1.15,2013-03-23 00:55:00,
2013-03-22 18:00:00,64.4,33.9,30.04,NNE,20,5.0,5.0,32,0.00,,,0.00,0,Wunderground v.1.15,2013-03-23 01:00:00,
2013-03-22 18:05:00,64.3,33.8,30.04,NNE,16,5.0,5.0,32,0.00,,,0.00,0,Wunderground v.1.15,2013-03-23 01:05:00,
2013-03-22 18:15:00,63.8,34.1,30.04,NE,56,6.0,6.0,33,0.00,,,0.00,0,Wunderground v.1.15,2013-03-23 01:15:00,
2013-03-22 18:20:00,63.5,33.9,30.05,NNE,24,4.0,4.0,33,0.00,,,0.00,0,Wunderground v.1.15,2013-03-23 01:20:00,
2013-03-22 18:25:00,63.2,33.6,30.05,NNE,29,2.0,4.0,33,0.00,,,0.00,0,Wunderground v.1.15,2013-03-23 01:25:00,
2013-03-22 18:30:00,63.0,33.4,30.05,NNE,27,3.0,3.0,33,0.00,,,0.00,0,Wunderground v.1.15,2013-03-23 01:30:00,
2013-03-22 18:35:00,62.7,33.2,30.05,NNE,26,8.0,8.0,33,0.00,,,0.00,0,Wunderground v.1.15,2013-03-23 01:35:00,
2013-03-22 18:40:00,62.4,32.9,30.05,NNE,26,8.0,8.0,33,0.00,,,0.00,0,Wunderground v.1.15,2013-03-23 01:40:00,
2013-03-22 18:50:00,62.0,32.5,30.05,NE,41,4.0,4.0,33,0.00,,,0.00,0,Wunderground v.1.15,2013-03-23 01:50:00,
2013-03-22 18:55:00,61.8,33.1,30.05,NNE,19,5.0,5.0,34,0.00,,,0.00,0,Wunderground v.1.15,2013-03-23 01:55:00,
2013-03-22 19:00:00,61.6,32.9,30.05,NE,50,3.0,3.0,34,0.00,,,0.00,0,Wunderground v.1.15,2013-03-23 02:00:00,
2013-03-22 19:05:00,61.4,32.8,30.05,North,11,4.0,4.0,34,0.00,,,0.00,0,Wunderground v.1.15,2013-03-23 02:05:00,
2013-03-22 19:10:00,61.1,33.2,30.06,NNE,28,8.0,8.0,35,0.00,,,0.00,0,Wunderground v.1.15,2013-03-23 02:10:00,
2013-03-22 19:15:00,60.9,33.0,30.06,NE,48,2.0,8.0,35,0.00,,,0.00,0,Wunderground v.1.15,2013-03-23 02:15:00,
2013-03-22 19:25:00,60.3,33.2,30.06,NNE,29,5.0,5.0,36,0.00,,,0.00,0,Wunderground v.1.15,2013-03-23 02:25:00,
2013-03-22 19:30:00,60.0,32.9,30.06,NE,44,1.0,1.0,36,0.00,,,0.00,0,Wunderground v.1.15,2013-03-23 02:30:00,
2013-03-22 19:35:00,59.7,33.4,30.06,NNE,29,5.0,5.0,37,0.00,,,0.00,0,Wunderground v.1.15,2013-03-23 02:35:00,
2013-03-22 19:40:00,59.4,33.1,30.07,NE,37,0.0,0.0,37,0.00,,,0.00,0,Wunderground v.1.15,2013-03-23 02:40:00,
2013-03-22 19:45:00,59.1,32.8,30.07,NE,36,3.0,3.0,37,0.00,,,0.00,0,Wunderground v.1.15,2013-03-23 02:45:00,
2013-03-22 19:50:00,58.9,32.7,30.07,North,11,2.0,2.0,37,0.00,,,0.00,0,Wunderground v.1.15,2013-03-23 02:50:00,
2013-03-22 19:55:00,58.6,32.4,30.07,NE,38,2.0,2.0,37,0.00,,,0.00,0,Wunderground v.1.15,2013-03-23 02:55:00,
2013-03-22 20:00:00,58.4,32.9,30.07,NE,43,2.0,2.0,38,0.00,,,0.00,0,Wunderground v.1.15,2013-03-23 03:00:00,
2013-03-22 20:05:00,58.2,32.7,30.08,NE,43,0.0,2.0,38,0.00,,,0.00,0,Wunderground v.1.15,2013-03-23 03:05:00,
2013-03-22 20:15:00,57.7,32.2,30.08,NE,44,1.0,3.0,38,0.00,,,0.00,0,Wunderground v.1.15,2013-03-23 03:15:00,
2013-03-22 20:20:00,57.5,32.1,30.08,NE,45,1.0,1.0,38,0.00,,,0.00,0,Wunderground v.1.15,2013-03-23 03:20:00,
2013-03-22 20:25:00,57.3,32.5,30.08,NE,47,2.0,2.0,39,0.00,,,0.00,0,Wunderground v.1.15,2013-03-23 03:25:00,
2013-03-22 20:30:00,57.0,32.3,30.08,ENE,57,2.0,2.0,39,0.00,,,0.00,0,Wunderground v.1.15,2013-03-23 03:30:00,
2013-03-22 20:40:00,56.0,32.6,30.08,East,79,2.0,2.0,41,0.00,,,0.00,0,Wunderground v.1.15,2013-03-23 03:40:00,
2013-03-22 20:45:00,55.6,32.2,30.08,ESE,103,1.0,2.0,41,0.00,,,0.00,0,Wunderground v.1.15,2013-03-23 03:45:00,
2013-03-22 20:50:00,55.3,31.4,30.08,ESE,113,2.0,2.0,40,0.00,,,0.00,0,Wunderground v.1.15,2013-03-23 03:50:00,
2013-03-22 20:55:00,55.0,31.7,30.09,ESE,104,3.0,3.0,41,0.00,,,0.00,0,Wunderground v.1.15,2013-03-23 03:55:00,
2013-03-22 21:00:00,54.7,30.8,30.09,ESE,112,1.0,1.0,40,0.00,,,0.00,0,Wunderground v.1.15,2013-03-23 04:00:00,
2013-03-22 21:05:00,54.5,30.6,30.09,ESE,112,2.0,2.0,40,0.00,,,0.00,0,Wunderground v.1.15,2013-03-23 04:05:00,
2013-03-22 21:10:00,54.3,30.5,30.09,ESE,114,2.0,2.0,40,0.00,,,0.00,0,Wunderground v.1.15,2013-03-23 04:10:00,
2013-03-22 21:20:00,54.2,30.4,30.09,ESE,115,0.0,0.0,40,0.00,,,0.00,0,Wunderground v.1.15,2013-03-23 04:20:00,
2013-03-22 21:25:00,54.0,30.2,30.09,ESE,115,2.0,2.0,40,0.00,,,0.00,0,Wunderground v.1.15,2013-03-23 04:25:00,
2013-03-22 21:35:00,53.9,29.5,30.09,ESE,112,1.0,1.0,39,0.00,,,0.00,0,Wunderground v.1.15,2013-03-23 04:35:00,
2013-03-22 21:40:00,53.8,30.0,30.09,ESE,113,2.0,2.0,40,0.00,,,0.00,0,Wunderground v.1.15,2013-03-23 04:40:00,
2013-03-22 21:45:00,53.5,29.7,30.10,ESE,113,2.0,2.0,40,0.00,,,0.00,0,Wunderground v.1.15,2013-03-23 04:45:00,
2013-03-22 21:50:00,53.2,30.1,30.10,ESE,121,2.0,2.0,41,0.00,,,0.00,0,Wunderground v.1.15,2013-03-23 04:50:00,
2013-03-22 21:55:00,53.0,29.9,30.10,SE,143,2.0,2.0,41,0.00,,,0.00,0,Wunderground v.1.15,2013-03-23 04:55:00,
2013-03-22 22:00:00,52.8,30.3,30.10,SE,140,3.0,3.0,42,0.00,,,0.00,0,Wunderground v.1.15,2013-03-23 05:00:00,
2013-03-22 22:05:00,52.5,30.6,30.10,SE,145,0.0,3.0,43,0.00,,,0.00,0,Wunderground v.1.15,2013-03-23 05:05:00,
2013-03-22 22:10:00,51.8,30.6,30.10,SE,145,1.0,1.0,44,0.00,,,0.00,0,Wunderground v.1.15,2013-03-23 05:10:00,
2013-03-22 22:20:00,50.5,31.5,30.10,SSE,154,0.0,0.0,48,0.00,,,0.00,0,Wunderground v.1.15,2013-03-23 05:20:00,
2013-03-22 22:30:00,50.6,31.1,30.10,SSE,154,0.0,0.0,47,0.00,,,0.00,0,Wunderground v.1.15,2013-03-23 05:30:00,
2013-03-22 22:35:00,50.8,30.7,30.10,SSE,154,1.0,1.0,46,0.00,,,0.00,0,Wunderground v.1.15,2013-03-23 05:35:00,
2013-03-22 22:40:00,51.0,30.9,30.10,SSE,154,0.0,0.0,46,0.00,,,0.00,0,Wunderground v.1.15,2013-03-23 05:40:00,
2013-03-22 22:45:00,51.3,31.2,30.10,SSE,154,1.0,1.0,46,0.00,,,0.00,0,Wunderground v.1.15,2013-03-23 05:45:00,
2013-03-22 22:50:00,51.2,31.6,30.10,SSE,154,0.0,0.0,47,0.00,,,0.00,0,Wunderground v.1.15,2013-03-23 05:50:00,
2013-03-22 22:55:00,51.0,31.5,30.10,SSE,154,0.0,0.0,47,0.00,,,0.00,0,Wunderground v.1.15,2013-03-23 05:55:00,
2013-03-22 23:00:00,51.0,30.9,30.10,SE,137,0.0,0.0,46,0.00,,,0.00,0,Wunderground v.1.15,2013-03-23 06:00:00,
2013-03-22 23:05:00,51.5,30.8,30.09,ESE,104,2.0,2.0,45,0.00,,,0.00,0,Wunderground v.1.15,2013-03-23 06:05:00,
2013-03-22 23:15:00,52.2,30.9,30.10,ESE,105,1.0,2.0,44,0.00,,,0.00,0,Wunderground v.1.15,2013-03-23 06:15:00,
2013-03-22 23:20:00,52.4,31.1,30.10,ESE,108,2.0,2.0,44,0.00,,,0.00,0,Wunderground v.1.15,2013-03-23 06:20:00,
2013-03-22 23:30:00,52.8,31.5,30.10,ESE,109,0.0,0.0,44,0.00,,,0.00,0,Wunderground v.1.15,2013-03-23 06:30:00,
2013-03-22 23:35:00,52.5,31.8,30.10,ESE,109,1.0,1.0,45,0.00,,,0.00,0,Wunderground v.1.15,2013-03-23 06:35:00,
2013-03-22 23:40:00,51.8,32.2,30.11,ESE,109,1.0,1.0,47,0.00,,,0.00,0,Wunderground v.1.15,2013-03-23 06:40:00,
2013-03-22 23:45:00,50.9,32.4,30.11,ESE,109,1.0,1.0,49,0.00,,,0.00,0,Wunderground v.1.15,2013-03-23 06:45:00,
2013-03-22 23:50:00,50.1,32.7,30.11,NW,308,0.0,0.0,51,0.00,,,0.00,0,Wunderground v.1.15,2013-03-23 06:50:00,